| time (UTC) | temp C | wind direction | speed KPH | gust KPH | rain 1hr cm | rain 24hr cm | rain mn cm | humidity % | barometer mb |
| 20260906085847 | 33 | 0.0 | 0.0 | 0.00 | 0.00 | 0.00 | 45 | 1019.2 | |
| 20260906083845 | 34 | 0.0 | 0.0 | 0.00 | 0.00 | 0.00 | 39 | 1019.1 | |
| 20260906081844 | 33 | 0.0 | 0.0 | 0.00 | 0.00 | 0.00 | 42 | 1019.2 | |
| 20260906075843 | 33 | 0.0 | 0.0 | 0.00 | 0.00 | 0.00 | 44 | 1019.1 | |
| 20260906073842 | 32 | 0.0 | 0.0 | 0.00 | 0.00 | 0.00 | 47 | 1019.1 | |
| 20260906071840 | 32 | 0.0 | 0.0 | 0.00 | 0.00 | 0.00 | 49 | 1019.0 | |
| 20260906065839 | 32 | 0.0 | 0.0 | 0.00 | 0.00 | 0.00 | 53 | 1018.9 | |
| 20260906063838 | 32 | 0.0 | 0.0 | 0.00 | 0.00 | 0.00 | 54 | 1018.8 | |
| 20260906061837 | 31 | 0.0 | 0.0 | 0.00 | 0.00 | 0.00 | 56 | 1018.8 | |
| 20260906055835 | 30 | 0.0 | 0.0 | 0.00 | 0.00 | 0.00 | 57 | 1018.7 | |
| 20260906053834 | 28 | 0.0 | 0.0 | 0.00 | 0.00 | 0.00 | 61 | 1018.7 | |
| 20260906051833 | 27 | 0.0 | 0.0 | 0.00 | 0.00 | 0.00 | 62 | 1018.7 | |
| 20260906045831 | 26 | 0.0 | 0.0 | 0.00 | 0.00 | 0.00 | 62 | 1018.6 | |
| 20260906043830 | 26 | 0.0 | 0.0 | 0.00 | 0.00 | 0.00 | 60 | 1018.5 | |
| 20260906041829 | 26 | 0.0 | 0.0 | 0.00 | 0.00 | 0.00 | 58 | 1018.5 | |
| 20260906035828 | 26 | 0.0 | 0.0 | 0.00 | 0.00 | 0.00 | 57 | 1018.4 | |
| 20260906033826 | 26 | 0.0 | 0.0 | 0.00 | 0.00 | 0.00 | 57 | 1018.2 | |
| 20260906031825 | 26 | 0.0 | 0.0 | 0.00 | 0.00 | 0.00 | 56 | 1018.0 | |
| 20260906025824 | 26 | 0.0 | 0.0 | 0.00 | 0.00 | 0.00 | 56 | 1018.1 | |
| 20260906023823 | 26 | 0.0 | 0.0 | 0.00 | 0.00 | 0.00 | 55 | 1018.3 | |
| 20260906021821 | 26 | 0.0 | 0.0 | 0.00 | 0.00 | 0.00 | 55 | 1018.3 | |
| 20260906015820 | 26 | 0.0 | 0.0 | 0.00 | 0.00 | 0.00 | 57 | 1018.3 | |
| 20260906013819 | 26 | 0.0 | 0.0 | 0.00 | 0.00 | 0.00 | 56 | 1018.2 | |
| 20260906011817 | 27 | 0.0 | 0.0 | 0.00 | 0.00 | 0.00 | 55 | 1018.2 | |
| 20260906005816 | 28 | 0.0 | 0.0 | 0.00 | 0.00 | 0.00 | 54 | 1018.0 | |
| 20260906003815 | 28 | 0.0 | 0.0 | 0.00 | 0.00 | 0.00 | 58 | 1018.1 | |
| 20260906001813 | 28 | 0.0 | 0.0 | 0.00 | 0.00 | 0.00 | 62 | 1018.1 | |
| 20260905235812 | 27 | 0.0 | 0.0 | 0.00 | 0.00 | 0.00 | 65 | 1018.4 | |
| 20260905233811 | 27 | 0.0 | 0.0 | 0.00 | 0.00 | 0.00 | 65 | 1018.4 | |
| 20260905231809 | 28 | 0.0 | 0.0 | 0.00 | 0.00 | 0.00 | 65 | 1018.6 | |
| 20260905225808 | 28 | 0.0 | 0.0 | 0.00 | 0.00 | 0.00 | 64 | 1018.5 | |
| 20260905223807 | 28 | 0.0 | 0.0 | 0.00 | 0.00 | 0.00 | 64 | 1018.6 | |
| 20260905221805 | 28 | 0.0 | 0.0 | 0.00 | 0.00 | 0.00 | 66 | 1018.5 | |
| 20260905215804 | 29 | 0.0 | 0.0 | 0.00 | 0.00 | 0.00 | 64 | 1018.5 | |
| 20260905213803 | 28 | 0.0 | 0.0 | 0.00 | 0.00 | 0.00 | 65 | 1018.5 | |
| 20260905211802 | 28 | 0.0 | 0.0 | 0.00 | 0.00 | 0.00 | 63 | 1018.6 | |
| 20260905205800 | 28 | 0.0 | 0.0 | 0.00 | 0.00 | 0.00 | 66 | 1018.6 | |
| 20260905203759 | 28 | 0.0 | 0.0 | 0.00 | 0.00 | 0.00 | 65 | 1018.6 | |
| 20260905201758 | 28 | 0.0 | 0.0 | 0.00 | 0.00 | 0.00 | 64 | 1018.6 | |
| 20260905195756 | 28 | 0.0 | 0.0 | 0.00 | 0.00 | 0.00 | 63 | 1018.7 | |
| 20260905193755 | 29 | 0.0 | 0.0 | 0.00 | 0.00 | 0.00 | 61 | 1018.7 | |
| 20260905191754 | 29 | 0.0 | 0.0 | 0.00 | 0.00 | 0.00 | 61 | 1018.5 | |
| 20260905185753 | 29 | 0.0 | 0.0 | 0.00 | 0.00 | 0.00 | 60 | 1018.3 | |
| 20260905183751 | 30 | 0.0 | 0.0 | 0.00 | 0.00 | 0.00 | 59 | 1018.0 | |
| 20260905181750 | 30 | 0.0 | 0.0 | 0.00 | 0.00 | 0.00 | 57 | 1017.9 | |
| 20260905175749 | 30 | 0.0 | 0.0 | 0.00 | 0.00 | 0.00 | 55 | 1017.8 | |
| 20260905173747 | 31 | 0.0 | 0.0 | 0.00 | 0.00 | 0.00 | 51 | 1017.6 | |
| 20260905171746 | 33 | 0.0 | 0.0 | 0.00 | 0.00 | 0.00 | 45 | 1017.4 | |
| 20260905165745 | 35 | 0.0 | 0.0 | 0.00 | 0.00 | 0.00 | 41 | 1017.2 | |
| 20260905163743 | 36 | 0.0 | 0.0 | 0.00 | 0.00 | 0.00 | 39 | 1017.2 | |
| 20260905161742 | 37 | 0.0 | 0.0 | 0.00 | 0.00 | 0.00 | 36 | 1017.2 | |
| 20260905155741 | 37 | 0.0 | 0.0 | 0.00 | 0.00 | 0.00 | 37 | 1017.3 | |
| 20260905153739 | 37 | 0.0 | 0.0 | 0.00 | 0.00 | 0.00 | 36 | 1017.3 | |
| 20260905151738 | 38 | 0.0 | 0.0 | 0.00 | 0.00 | 0.00 | 36 | 1017.2 | |
| 20260905145737 | 38 | 0.0 | 0.0 | 0.00 | 0.00 | 0.00 | 35 | 1017.2 | |
| 20260905143735 | 38 | 0.0 | 0.0 | 0.00 | 0.00 | 0.00 | 35 | 1017.1 | |
| 20260905141734 | 38 | 0.0 | 0.0 | 0.00 | 0.00 | 0.00 | 34 | 1017.1 | |
| 20260905135733 | 37 | 0.0 | 0.0 | 0.00 | 0.00 | 0.00 | 36 | 1017.3 | |
| 20260905133732 | 38 | 0.0 | 0.0 | 0.00 | 0.00 | 0.00 | 37 | 1017.4 | |
| 20260905131730 | 37 | 0.0 | 0.0 | 0.00 | 0.00 | 0.00 | 37 | 1017.5 | |
| 20260905125729 | 38 | 0.0 | 0.0 | 0.00 | 0.00 | 0.00 | 35 | 1017.5 | |
| 20260905123728 | 37 | 0.0 | 0.0 | 0.00 | 0.00 | 0.00 | 35 | 1017.8 | |
| 20260905121727 | 36 | 0.0 | 0.0 | 0.00 | 0.00 | 0.00 | 33 | 1017.9 | |
| 20260905115725 | 37 | 0.0 | 0.0 | 0.00 | 0.00 | 0.00 | 35 | 1018.0 | |
| 20260905113724 | 36 | 0.0 | 0.0 | 0.00 | 0.00 | 0.00 | 37 | 1018.2 | |
| 20260905111723 | 36 | 0.0 | 0.0 | 0.00 | 0.00 | 0.00 | 36 | 1018.3 | |
| 20260905105721 | 36 | 0.0 | 0.0 | 0.00 | 0.00 | 0.00 | 37 | 1018.3 | |
| 20260905103720 | 36 | 0.0 | 0.0 | 0.00 | 0.00 | 0.00 | 36 | 1018.1 | |
| 20260905101718 | 36 | 0.0 | 0.0 | 0.00 | 0.00 | 0.00 | 33 | 1018.2 | |
| 20260905095717 | 35 | 0.0 | 0.0 | 0.00 | 0.00 | 0.00 | 34 | 1018.1 | |
| 20260905093716 | 35 | 0.0 | 0.0 | 0.00 | 0.00 | 0.00 | 33 | 1018.2 | |
| 20260905091715 | 35 | 0.0 | 0.0 | 0.00 | 0.00 | 0.00 | 31 | 1018.2 |